Time,TemperatureF,DewpointF,PressureIn,WindDirection,WindDirectionDegrees,WindSpeedMPH,WindSpeedGustMPH,Humidity,HourlyPrecipIn,Conditions,Clouds,dailyrainin,SoftwareType,DateUTC
2016-12-03 00:01:00,35.3,33.0,30.11,West,279,10.0,17.0,90,0.00,,,0.00,weatherlink.com 1.10,2016-12-03 05:01:00,
2016-12-03 00:16:00,35.3,33.0,30.11,WNW,295,14.0,18.0,91,0.00,,,0.00,weatherlink.com 1.10,2016-12-03 05:16:00,
2016-12-03 00:31:00,35.3,33.0,30.11,WNW,288,7.0,16.0,91,0.00,,,0.00,weatherlink.com 1.10,2016-12-03 05:31:00,
2016-12-03 00:46:00,35.3,33.0,30.12,NW,306,8.0,17.0,91,0.00,,,0.00,weatherlink.com 1.10,2016-12-03 05:46:00,
2016-12-03 01:01:00,35.0,33.0,30.12,NW,304,8.0,17.0,92,0.00,,,0.00,weatherlink.com 1.10,2016-12-03 06:01:00,
2016-12-03 01:16:00,35.1,33.0,30.12,WNW,290,8.0,15.0,93,0.00,,,0.00,weatherlink.com 1.10,2016-12-03 06:16:00,
2016-12-03 01:31:00,35.1,33.0,30.13,West,280,9.0,14.0,93,0.00,,,0.00,weatherlink.com 1.10,2016-12-03 06:31:00,
2016-12-03 01:46:00,35.2,33.0,30.13,NW,308,13.0,15.0,93,0.01,,,0.01,weatherlink.com 1.10,2016-12-03 06:46:00,
2016-12-03 02:01:00,35.5,34.0,30.14,WNW,294,10.0,15.0,93,0.01,,,0.01,weatherlink.com 1.10,2016-12-03 07:01:00,
2016-12-03 02:16:00,35.6,34.0,30.14,NW,310,11.0,18.0,92,0.01,,,0.01,weatherlink.com 1.10,2016-12-03 07:16:00,
2016-12-03 02:31:00,35.6,34.0,30.15,WNW,292,8.0,22.0,92,0.01,,,0.01,weatherlink.com 1.10,2016-12-03 07:31:00,
2016-12-03 02:46:00,35.6,33.0,30.15,West,275,7.0,17.0,91,0.00,,,0.01,weatherlink.com 1.10,2016-12-03 07:46:00,
2016-12-03 03:01:00,35.6,33.0,30.15,NW,322,4.0,21.0,91,0.00,,,0.01,weatherlink.com 1.10,2016-12-03 08:01:00,
2016-12-03 03:16:00,35.6,33.0,30.15,WNW,290,10.0,16.0,91,0.00,,,0.01,weatherlink.com 1.10,2016-12-03 08:16:00,
2016-12-03 03:31:00,35.6,33.0,30.15,WNW,302,10.0,15.0,91,0.00,,,0.01,weatherlink.com 1.10,2016-12-03 08:31:00,
2016-12-03 03:46:00,35.6,33.0,30.15,WNW,301,9.0,15.0,90,0.00,,,0.01,weatherlink.com 1.10,2016-12-03 08:46:00,
2016-12-03 04:01:00,35.6,33.0,30.15,WNW,293,9.0,14.0,90,0.00,,,0.01,weatherlink.com 1.10,2016-12-03 09:01:00,
2016-12-03 04:16:00,35.7,33.0,30.16,WNW,300,4.0,14.0,90,0.00,,,0.01,weatherlink.com 1.10,2016-12-03 09:16:00,
2016-12-03 04:31:00,35.7,33.0,30.16,NW,306,6.0,16.0,90,0.00,,,0.01,weatherlink.com 1.10,2016-12-03 09:31:00,
2016-12-03 04:46:00,35.6,33.0,30.17,NW,317,9.0,17.0,91,0.00,,,0.01,weatherlink.com 1.10,2016-12-03 09:46:00,
2016-12-03 05:01:00,35.5,33.0,30.17,WNW,282,7.0,14.0,91,0.00,,,0.01,weatherlink.com 1.10,2016-12-03 10:01:00,
2016-12-03 05:16:00,35.4,33.0,30.17,WNW,290,10.0,16.0,91,0.00,,,0.01,weatherlink.com 1.10,2016-12-03 10:16:00,
2016-12-03 05:32:00,35.4,33.0,30.18,NW,306,11.0,14.0,91,0.00,,,0.01,weatherlink.com 1.10,2016-12-03 10:32:00,
2016-12-03 05:46:00,35.4,33.0,30.18,NW,306,6.0,12.0,91,0.00,,,0.01,weatherlink.com 1.10,2016-12-03 10:46:00,
2016-12-03 06:01:00,35.4,33.0,30.18,WNW,284,5.0,11.0,91,0.00,,,0.01,weatherlink.com 1.10,2016-12-03 11:01:00,
2016-12-03 06:16:00,35.4,33.0,30.18,WNW,297,4.0,10.0,91,0.00,,,0.01,weatherlink.com 1.10,2016-12-03 11:16:00,
2016-12-03 06:31:00,35.4,33.0,30.18,WNW,288,6.0,11.0,91,0.00,,,0.01,weatherlink.com 1.10,2016-12-03 11:31:00,
2016-12-03 06:46:00,35.5,33.0,30.18,WNW,289,8.0,12.0,91,0.00,,,0.01,weatherlink.com 1.10,2016-12-03 11:46:00,
2016-12-03 07:01:00,35.6,33.0,30.18,WNW,303,6.0,11.0,91,0.00,,,0.01,weatherlink.com 1.10,2016-12-03 12:01:00,
2016-12-03 07:17:00,35.6,33.0,30.19,WNW,296,6.0,11.0,91,0.00,,,0.01,weatherlink.com 1.10,2016-12-03 12:17:00,
2016-12-03 07:31:00,35.7,33.0,30.19,WNW,294,7.0,15.0,91,0.00,,,0.01,weatherlink.com 1.10,2016-12-03 12:31:00,
2016-12-03 07:46:00,35.8,33.0,30.20,WNW,290,4.0,11.0,90,0.00,,,0.01,weatherlink.com 1.10,2016-12-03 12:46:00,
2016-12-03 08:01:00,35.5,33.0,30.21,WNW,298,7.0,11.0,91,0.00,,,0.01,weatherlink.com 1.10,2016-12-03 13:01:00,
2016-12-03 08:17:00,35.1,33.0,30.21,West,261,2.0,8.0,92,0.00,,,0.01,weatherlink.com 1.10,2016-12-03 13:17:00,
2016-12-03 08:32:00,35.1,33.0,30.21,WNW,288,3.0,7.0,93,0.00,,,0.01,weatherlink.com 1.10,2016-12-03 13:32:00,
2016-12-03 08:47:00,34.6,33.0,30.21,West,281,5.0,8.0,93,0.00,,,0.01,weatherlink.com 1.10,2016-12-03 13:47:00,
2016-12-03 09:02:00,34.6,33.0,30.22,West,281,7.0,9.0,94,0.01,,,0.02,weatherlink.com 1.10,2016-12-03 14:02:00,
2016-12-03 09:17:00,35.0,34.0,30.22,West,276,3.0,9.0,94,0.01,,,0.02,weatherlink.com 1.10,2016-12-03 14:17:00,
2016-12-03 09:32:00,35.2,34.0,30.22,West,275,5.0,9.0,94,0.01,,,0.02,weatherlink.com 1.10,2016-12-03 14:32:00,
2016-12-03 09:47:00,35.4,34.0,30.23,West,263,6.0,7.0,94,0.01,,,0.02,weatherlink.com 1.10,2016-12-03 14:47:00,
2016-12-03 10:02:00,35.5,34.0,30.24,West,263,4.0,9.0,95,0.00,,,0.02,weatherlink.com 1.10,2016-12-03 15:02:00,
2016-12-03 10:17:00,35.2,34.0,30.24,WNW,285,5.0,14.0,94,0.01,,,0.03,weatherlink.com 1.10,2016-12-03 15:17:00,
2016-12-03 10:32:00,35.1,34.0,30.25,West,269,5.0,12.0,94,0.01,,,0.03,weatherlink.com 1.10,2016-12-03 15:32:00,
2016-12-03 10:47:00,35.1,34.0,30.25,West,267,6.0,13.0,94,0.01,,,0.03,weatherlink.com 1.10,2016-12-03 15:47:00,
2016-12-03 11:02:00,35.3,34.0,30.25,WNW,288,9.0,11.0,94,0.01,,,0.03,weatherlink.com 1.10,2016-12-03 16:02:00,
2016-12-03 11:17:00,35.2,34.0,30.24,WNW,294,6.0,11.0,94,0.00,,,0.03,weatherlink.com 1.10,2016-12-03 16:17:00,
2016-12-03 11:32:00,35.3,34.0,30.23,West,263,7.0,12.0,94,0.00,,,0.03,weatherlink.com 1.10,2016-12-03 16:32:00,
2016-12-03 11:47:00,35.3,34.0,30.23,WNW,294,14.0,14.0,94,0.00,,,0.03,weatherlink.com 1.10,2016-12-03 16:47:00,
2016-12-03 12:02:00,35.6,34.0,30.22,WSW,253,7.0,11.0,94,0.00,,,0.03,weatherlink.com 1.10,2016-12-03 17:02:00,
2016-12-03 12:17:00,36.1,34.0,30.21,NW,304,5.0,13.0,93,0.00,,,0.03,weatherlink.com 1.10,2016-12-03 17:17:00,
2016-12-03 12:32:00,36.4,34.0,30.20,WNW,295,4.0,11.0,92,0.00,,,0.03,weatherlink.com 1.10,2016-12-03 17:32:00,
2016-12-03 12:47:00,36.5,34.0,30.19,WNW,284,5.0,12.0,90,0.00,,,0.03,weatherlink.com 1.10,2016-12-03 17:47:00,
2016-12-03 13:02:00,36.8,34.0,30.19,WNW,285,9.0,11.0,90,0.00,,,0.03,weatherlink.com 1.10,2016-12-03 18:02:00,
2016-12-03 13:17:00,36.9,34.0,30.19,WNW,286,6.0,13.0,88,0.00,,,0.03,weatherlink.com 1.10,2016-12-03 18:17:00,
2016-12-03 13:32:00,37.2,34.0,30.19,West,265,5.0,12.0,88,0.00,,,0.03,weatherlink.com 1.10,2016-12-03 18:32:00,
2016-12-03 13:47:00,37.3,34.0,30.19,NW,309,5.0,13.0,88,0.00,,,0.03,weatherlink.com 1.10,2016-12-03 18:47:00,
2016-12-03 14:02:00,37.4,34.0,30.20,West,275,10.0,12.0,88,0.00,,,0.03,weatherlink.com 1.10,2016-12-03 19:02:00,
2016-12-03 14:17:00,37.5,34.0,30.20,NW,312,3.0,13.0,88,0.00,,,0.03,weatherlink.com 1.10,2016-12-03 19:17:00,
2016-12-03 14:32:00,37.3,34.0,30.22,WSW,240,11.0,16.0,88,0.00,,,0.03,weatherlink.com 1.10,2016-12-03 19:32:00,
2016-12-03 14:47:00,37.3,34.0,30.24,West,263,8.0,11.0,88,0.00,,,0.03,weatherlink.com 1.10,2016-12-03 19:47:00,
2016-12-03 15:02:00,37.1,34.0,30.23,NW,309,12.0,15.0,88,0.00,,,0.03,weatherlink.com 1.10,2016-12-03 20:02:00,
2016-12-03 15:17:00,37.0,34.0,30.23,WNW,296,8.0,12.0,87,0.00,,,0.03,weatherlink.com 1.10,2016-12-03 20:17:00,
2016-12-03 15:32:00,37.0,34.0,30.23,WNW,289,10.0,13.0,88,0.00,,,0.03,weatherlink.com 1.10,2016-12-03 20:32:00,
2016-12-03 15:47:00,36.3,34.0,30.24,NW,319,5.0,12.0,90,0.00,,,0.03,weatherlink.com 1.10,2016-12-03 20:47:00,
2016-12-03 16:02:00,36.0,34.0,30.24,WNW,290,12.0,14.0,91,0.00,,,0.03,weatherlink.com 1.10,2016-12-03 21:02:00,
2016-12-03 16:17:00,35.9,34.0,30.24,West,271,4.0,11.0,92,0.00,,,0.03,weatherlink.com 1.10,2016-12-03 21:17:00,
2016-12-03 16:32:00,35.9,34.0,30.24,West,259,5.0,10.0,92,0.00,,,0.03,weatherlink.com 1.10,2016-12-03 21:32:00,
2016-12-03 16:47:00,35.9,34.0,30.24,WNW,291,6.0,8.0,92,0.00,,,0.03,weatherlink.com 1.10,2016-12-03 21:47:00,
2016-12-03 17:02:00,35.9,34.0,30.24,West,267,4.0,9.0,92,0.00,,,0.03,weatherlink.com 1.10,2016-12-03 22:02:00,
2016-12-03 17:17:00,35.9,34.0,30.25,West,281,4.0,8.0,92,0.00,,,0.03,weatherlink.com 1.10,2016-12-03 22:17:00,
2016-12-03 17:32:00,35.6,34.0,30.24,WNW,290,4.0,7.0,92,0.00,,,0.03,weatherlink.com 1.10,2016-12-03 22:32:00,
2016-12-03 17:47:00,35.3,34.0,30.25,NNW,342,1.0,8.0,93,0.00,,,0.03,weatherlink.com 1.10,2016-12-03 22:47:00,
2016-12-03 18:02:00,35.0,33.0,30.25,West,276,0.0,5.0,93,0.00,,,0.03,weatherlink.com 1.10,2016-12-03 23:02:00,
2016-12-03 18:17:00,35.4,34.0,30.25,NW,309,0.0,4.0,93,0.00,,,0.03,weatherlink.com 1.10,2016-12-03 23:17:00,
2016-12-03 18:32:00,35.4,34.0,30.24,WNW,291,2.0,4.0,94,0.00,,,0.03,weatherlink.com 1.10,2016-12-03 23:32:00,
2016-12-03 18:47:00,35.5,34.0,30.24,West,273,2.0,5.0,94,0.00,,,0.03,weatherlink.com 1.10,2016-12-03 23:47:00,
2016-12-03 19:02:00,35.4,34.0,30.24,West,274,0.0,4.0,94,0.00,,,0.03,weatherlink.com 1.10,2016-12-04 00:02:00,